﻿_id,日時,平均風速(m/s),平均風向,最大瞬間風速(m/s),最大風速時風向,気温(℃),湿度(%),10分間移動積算雨量(mm),1時間移動積算雨量(mm),日雨量(mm),累計雨量(mm)
1,2019-09-23T00:00:00,2.2,東北東,5.2,北東,24.7,82.7,0,0.5,3.5,17.5
2,2019-09-23T00:01:00,2.1,東北東,5.2,北東,24.7,82.4,0,0.5,0,17.5
3,2019-09-23T00:02:00,2.1,北東,5.2,北東,24.7,82.3,0,0.5,0,17.5
4,2019-09-23T00:03:00,2.4,北東,7.9,北東,25.1,81,0,0,0,17.5
5,2019-09-23T00:04:00,2.5,北東,7.9,北東,25.3,79.7,0,0,0,17.5
6,2019-09-23T00:05:00,2.4,東北東,7.9,北東,25.7,78,0,0,0,17.5
7,2019-09-23T00:06:00,2.2,東北東,7.9,北東,25.7,77.4,0,0,0,17.5
8,2019-09-23T00:07:00,2,東北東,7.9,北東,25.8,76.6,0,0,0,17.5
9,2019-09-23T00:08:00,1.7,東北東,7.9,北東,25.9,75.8,0,0,0,17.5
10,2019-09-23T00:09:00,1.5,北東,7.9,北東,25.9,75.6,0,0,0,17.5
11,2019-09-23T00:10:00,1.5,北東,7.9,北東,25.7,76,0,0,0,17.5
12,2019-09-23T00:11:00,1.6,北,7.9,北東,25.9,75.3,0,0,0,17.5
13,2019-09-23T00:12:00,1.5,北北西,7.9,北東,25.6,76.2,0,0,0,17.5
14,2019-09-23T00:13:00,1.2,北西,3.5,東北東,25.4,77.2,0,0,0,17.5
15,2019-09-23T00:14:00,1.1,西北西,3.1,北北東,25.2,78,0,0,0,17.5
16,2019-09-23T00:15:00,1.1,北西,3.1,北北東,25,79.1,0,0,0,17.5
17,2019-09-23T00:16:00,1.3,北北西,5.4,北北東,25.3,78.3,0,0,0,17.5
18,2019-09-23T00:17:00,1.4,北北西,5.4,北北東,25.7,76.8,0,0,0,17.5
19,2019-09-23T00:18:00,1.5,北北西,5.4,北北東,25.5,77.6,0,0,0,17.5
20,2019-09-23T00:19:00,1.6,北,5.4,北北東,25.2,78.9,0,0,0,17.5
21,2019-09-23T00:20:00,1.6,北北西,5.4,北北東,26,75.9,0,0,0,17.5
22,2019-09-23T00:21:00,1.6,北北西,5.4,北北東,26.2,74.7,0,0,0,17.5
23,2019-09-23T00:22:00,1.7,北,5.4,北北東,26.2,74.1,0,0,0,17.5
24,2019-09-23T00:23:00,1.6,北北東,5.4,北北東,26.1,74.3,0,0,0,17.5
25,2019-09-23T00:24:00,1.7,北,5.4,北北東,25.9,74.6,0,0,0,17.5
26,2019-09-23T00:25:00,1.7,北北西,5.4,北北東,25.8,75,0,0,0,17.5
27,2019-09-23T00:26:00,1.4,北北西,4,北北西,26.1,74.1,0,0,0,17.5
28,2019-09-23T00:27:00,1.5,北北西,4,北北西,26.1,74,0,0,0,17.5
29,2019-09-23T00:28:00,1.7,北北西,6.8,南東,26.2,73.5,0,0,0,17.5
30,2019-09-23T00:29:00,1.6,北,6.8,南東,26,74.1,0,0,0,17.5
31,2019-09-23T00:30:00,1.6,北北東,6.8,南東,26.1,73.8,0,0,0,17.5
32,2019-09-23T00:31:00,,"",,"",,,,,,
33,2019-09-23T00:32:00,1.7,北,6.8,南東,26.4,72.5,0,0,0,17.5
34,2019-09-23T00:33:00,1.9,北北東,7.3,南南東,26.4,72.9,0,0,0,17.5
35,2019-09-23T00:34:00,2.1,北東,7.3,南南東,26.7,71.4,0,0,0,17.5
36,2019-09-23T00:35:00,2.3,北東,7.3,南南東,26.7,71.2,0,0,0,17.5
37,2019-09-23T00:36:00,2.5,東,7.3,南南東,26.3,72.4,0.5,0.5,0.5,18
38,2019-09-23T00:37:00,2.8,東,8.2,南東,26,73.7,1,1,1,18.5
39,2019-09-23T00:38:00,2.8,東,8.2,南東,25.8,75,1.5,1.5,1.5,19
40,2019-09-23T00:39:00,2.8,東南東,8.2,南東,25.2,77.8,1.5,1.5,1.5,19
41,2019-09-23T00:40:00,3.2,東南東,9.7,南南東,25.1,78.5,2,2,2,19.5
42,2019-09-23T00:41:00,3.2,南東,9.7,南南東,25.1,79.1,2,2,2,19.5
43,2019-09-23T00:42:00,3.2,南東,9.7,南南東,24.9,80.1,2.5,2.5,2.5,20
44,2019-09-23T00:43:00,3.2,南東,9.7,南南東,25,80.5,3,3,3,20.5
45,2019-09-23T00:44:00,3.1,南南東,9.7,南南東,24.9,81.1,3.5,3.5,3.5,21
46,2019-09-23T00:45:00,3.1,南東,9.7,南南東,24.8,81.8,4,4,4,21.5
47,2019-09-23T00:46:00,3,南東,9.7,南南東,24.9,81.7,4,4.5,4.5,22
48,2019-09-23T00:47:00,2.8,南東,9.7,南南東,24.4,83.4,4,5,5,22.5
49,2019-09-23T00:48:00,2.9,南南東,9.7,南南東,24.3,84.5,3.5,5,5,22.5
50,2019-09-23T00:49:00,3.3,南南東,11.6,南南東,24.7,83.2,4,5.5,5.5,23
51,2019-09-23T00:50:00,3.2,南南東,11.6,南南東,24.8,83,3.5,5.5,5.5,23
52,2019-09-23T00:51:00,3.1,南南東,11.6,南南東,24.8,82.5,3.5,5.5,5.5,23
53,2019-09-23T00:52:00,3.1,南南東,11.6,南南東,25,81.4,3,5.5,5.5,23
54,2019-09-23T00:53:00,3.2,南東,11.6,南南東,24.9,82.2,2.5,5.5,5.5,23
55,2019-09-23T00:54:00,3.2,南東,11.6,南南東,24.8,82.3,2,5.5,5.5,23
56,2019-09-23T00:55:00,3.3,南東,11.6,南南東,24.5,83.5,2,6,6,23.5
57,2019-09-23T00:56:00,3.3,南東,11.6,南南東,24.5,83.8,1.5,6,6,23.5
58,2019-09-23T00:57:00,3.6,南東,11.6,南南東,24.8,83.1,1,6,6,23.5
59,2019-09-23T00:58:00,3.4,南東,11.6,南南東,25.1,81.6,1,6,6,23.5
60,2019-09-23T00:59:00,3,南東,9.3,南南東,25.1,81.5,0.5,6,6,23.5
61,2019-09-23T01:00:00,2.8,東南東,7.1,南,24.9,81.9,0.5,6,6,23.5
62,2019-09-23T01:01:00,2.8,東南東,7.1,南,24.8,82.4,0.5,6,6,23.5
63,2019-09-23T01:02:00,2.6,東,7.1,南,24.9,82.1,0.5,6,6,23.5
64,2019-09-23T01:03:00,2.4,東,7.1,南,24.7,82.7,0.5,6,6,23.5
65,2019-09-23T01:04:00,2.1,東北東,7.1,南,24.4,84.3,0.5,6,6,23.5
66,2019-09-23T01:05:00,2,北東,7.1,南,24.4,84.7,0,6,6,23.5
67,2019-09-23T01:06:00,1.8,北北東,7.1,南,24.5,84.4,0,6,6,23.5
68,2019-09-23T01:07:00,1.5,北東,7.1,南,24.5,84.4,0,6,6,23.5
69,2019-09-23T01:08:00,,"",,"",,,,,,
70,2019-09-23T01:09:00,1.3,北東,3.6,東南東,24.8,83.9,0,6,6,23.5
71,2019-09-23T01:10:00,1.2,北東,3.6,東南東,24.5,84.2,0,6,6,23.5
72,2019-09-23T01:11:00,1.2,東北東,3.6,東南東,24.4,84.9,0,6,6,23.5
73,2019-09-23T01:12:00,1.3,東北東,3.6,東南東,24.4,85.4,0,6,6,23.5
74,2019-09-23T01:13:00,1.5,東北東,8.9,南,24.3,86.2,0,6,6,23.5
75,2019-09-23T01:14:00,1.9,東,9.4,南,24.4,86.8,0,6,6,23.5
76,2019-09-23T01:15:00,2,東,9.4,南,24.9,85.7,0,6,6,23.5
77,2019-09-23T01:16:00,2.5,東南東,9.4,南,25.1,84.7,0,6,6,23.5
78,2019-09-23T01:17:00,3,東南東,9.4,南,25.3,83.2,0,6,6,23.5
79,2019-09-23T01:18:00,3.3,東南東,9.4,南,25.1,83,0.5,6.5,6.5,24
80,2019-09-23T01:19:00,3.7,東南東,13.4,東南東,24.8,84,0.5,6.5,6.5,24
81,2019-09-23T01:20:00,4.3,東南東,13.4,東南東,24.6,85.5,0.5,6.5,6.5,24
82,2019-09-23T01:21:00,4.5,東南東,13.4,東南東,24.2,86.9,0.5,6.5,6.5,24
83,2019-09-23T01:22:00,4.5,南東,13.4,東南東,24.3,87.6,1,7,7,24.5
84,2019-09-23T01:23:00,4.6,南東,13.4,東南東,25,86.4,1,7,7,24.5
85,2019-09-23T01:24:00,4.5,南東,13.4,東南東,24.6,86.7,1,7,7,24.5
86,2019-09-23T01:25:00,4.6,南東,13.4,東南東,24.6,87.2,1,7,7,24.5
87,2019-09-23T01:26:00,4.5,南東,13.4,東南東,24.6,87.4,1,7,7,24.5
88,2019-09-23T01:27:00,4.1,南南東,13.4,東南東,25,86.2,1,7,7,24.5
89,2019-09-23T01:28:00,3.9,南東,13.4,東南東,25,85.5,0.5,7,7,24.5
90,2019-09-23T01:29:00,3.7,南南東,11,南東,25,85.5,0.5,7,7,24.5
91,2019-09-23T01:30:00,4,南南東,17.8,南東,25.3,84.5,0.5,7,7,24.5
92,2019-09-23T01:31:00,4.2,南南東,17.8,南東,25.3,83.5,0.5,7,7,24.5
93,2019-09-23T01:32:00,4.6,南南東,17.8,南東,25.2,84.1,0,7,7,24.5
94,2019-09-23T01:33:00,4.6,南東,17.8,南東,24.9,84.6,0,7,7,24.5
95,2019-09-23T01:34:00,4.4,南東,17.8,南東,24.6,85.3,0,7,7,24.5
96,2019-09-23T01:35:00,4.3,南東,17.8,南東,24.5,86.4,0.5,7.5,7.5,25
97,2019-09-23T01:36:00,4.2,東南東,17.8,南東,24.4,87.4,0.5,7,7.5,25
98,2019-09-23T01:37:00,4.3,東南東,17.8,南東,24.3,87.6,0.5,6.5,7.5,25
99,2019-09-23T01:38:00,4.6,東南東,17.8,南東,24.3,87.9,0.5,6,7.5,25
100,2019-09-23T01:39:00,4.5,東,17.8,南東,24.4,88,0.5,6,7.5,25
101,2019-09-23T01:40:00,4.1,東,12.2,南南西,24.1,88.7,0.5,5.5,7.5,25
102,2019-09-23T01:41:00,4,東,12.2,南南西,24,89.5,1,6,8,25.5
103,2019-09-23T01:42:00,,"",,"",,,,,,
104,2019-09-23T01:43:00,4,東北東,8.8,東北東,24.4,90.9,1,5,8,25.5
105,2019-09-23T01:44:00,,"",,"",,,,,,
106,2019-09-23T01:45:00,4.7,東北東,17,南南東,25,88.2,0.5,4,8,25.5
107,2019-09-23T01:46:00,4.8,東,17,南南東,25.3,87,0.5,3.5,8,25.5
108,2019-09-23T01:47:00,4.9,東,17,南南東,25.3,86.1,0.5,3,8,25.5
109,2019-09-23T01:48:00,4.6,東,17,南南東,25,86.3,0.5,3,8,25.5
110,2019-09-23T01:49:00,4.4,東南東,17,南南東,25.3,86.3,0.5,2.5,8,25.5
111,2019-09-23T01:50:00,4.1,東南東,17,南南東,25.5,85.6,0.5,2.5,8,25.5
112,2019-09-23T01:51:00,4,東南東,17,南南東,25.4,85.6,0,2.5,8,25.5
113,2019-09-23T01:52:00,4.2,東南東,17,南南東,25.5,85.6,0,2.5,8,25.5
114,2019-09-23T01:53:00,3.9,南東,17,南南東,25.8,84.6,0,2.5,8,25.5
115,2019-09-23T01:54:00,4.2,南東,17,南南東,25.8,84.3,0,2.5,8,25.5
116,2019-09-23T01:55:00,5.1,南東,22.2,東南東,25.9,84.3,0.5,2.5,8.5,26
117,2019-09-23T01:56:00,5.3,南東,22.2,東南東,25.9,83.8,0.5,2.5,8.5,26
118,2019-09-23T01:57:00,5.1,東南東,22.2,東南東,25.8,84,0.5,2.5,8.5,26
119,2019-09-23T01:58:00,5.4,東南東,22.2,東南東,25.8,84.1,0.5,2.5,8.5,26
120,2019-09-23T01:59:00,5.9,東南東,22.2,東南東,25.9,83.6,0.5,2.5,8.5,26
121,2019-09-23T02:00:00,6.8,東南東,22.2,東南東,25.9,83.6,0.5,2.5,8.5,26
122,2019-09-23T02:01:00,7.2,東南東,22.2,東南東,25.9,83.4,0.5,2.5,8.5,26
123,2019-09-23T02:02:00,7,東南東,22.2,東南東,26.1,82.7,0.5,2.5,8.5,26
124,2019-09-23T02:03:00,6.8,東南東,22.2,東南東,26.1,82.6,0.5,2.5,8.5,26
125,2019-09-23T02:04:00,6.1,東,22.2,東南東,26.2,82.4,0.5,2.5,8.5,26
126,2019-09-23T02:05:00,5,東南東,19.1,南東,26.1,82.8,0,2.5,8.5,26
127,2019-09-23T02:06:00,4.6,東,19.1,南東,26.2,82.6,0,2.5,8.5,26
128,2019-09-23T02:07:00,4.7,東,19.1,南東,26.3,82.2,0,2.5,8.5,26
129,2019-09-23T02:08:00,4.6,東,19.1,南東,26.3,82.4,0,2.5,8.5,26
130,2019-09-23T02:09:00,4.2,東,19.1,南東,26.2,82.6,0,2.5,8.5,26
131,2019-09-23T02:10:00,3.5,東,18.1,南東,26.2,83,0,2.5,8.5,26
132,2019-09-23T02:11:00,3.3,東,9.9,南東,26.1,83.4,0,2.5,8.5,26
133,2019-09-23T02:12:00,3.8,東,17.8,南東,26.3,83,0,2.5,8.5,26
134,2019-09-23T02:13:00,4.7,東,17.8,南東,26.2,83.5,0,2.5,8.5,26
135,2019-09-23T02:14:00,5.1,東南東,17.8,南東,26.1,83.8,0,2.5,8.5,26
136,2019-09-23T02:15:00,5.6,東,18.7,南南東,26.1,83.9,0,2.5,8.5,26
137,2019-09-23T02:16:00,5.7,東南東,18.7,南南東,26.2,83.6,0,2.5,8.5,26
138,2019-09-23T02:17:00,6.2,東南東,18.7,南南東,26.2,83.7,0,2.5,8.5,26
139,2019-09-23T02:18:00,6.8,東南東,19.2,東南東,26.5,82.6,0,2,8.5,26
140,2019-09-23T02:19:00,,"",,"",,,,,,
141,2019-09-23T02:20:00,8.1,東南東,23.5,南東,26.5,82.2,0.5,2.5,9,26.5
142,2019-09-23T02:21:00,8,東南東,23.5,南東,26.5,82.1,0.5,2.5,9,26.5
143,2019-09-23T02:22:00,8.2,東南東,23.5,南東,26.5,81.6,0.5,2,9,26.5
144,2019-09-23T02:23:00,7.7,南東,23.5,南東,26.5,81.6,0.5,2,9,26.5
145,2019-09-23T02:24:00,7.7,南東,23.5,南東,26.4,82.2,0.5,2,9,26.5
146,2019-09-23T02:25:00,7.5,南東,23.5,南東,26.3,82.7,0.5,2,9,26.5
147,2019-09-23T02:26:00,7.7,南東,23.5,南東,26.2,83,0.5,2,9,26.5
148,2019-09-23T02:27:00,7.2,南東,23.5,南東,26.4,82.5,0.5,2,9,26.5
149,2019-09-23T02:28:00,6.7,南東,23.5,南東,26.3,82.7,0.5,2,9,26.5
150,2019-09-23T02:29:00,6.6,南東,23.5,南東,26.4,82.3,0,2,9,26.5
151,2019-09-23T02:30:00,6.2,南東,21.6,南,26.5,82.1,0,2,9,26.5
152,2019-09-23T02:31:00,6.1,南東,21.6,南,26.5,81.6,0,2,9,26.5
153,2019-09-23T02:32:00,5.2,南東,16.1,東南東,26.5,81.4,0,2,9,26.5
154,2019-09-23T02:33:00,4.9,南東,16.1,東南東,26.5,81.7,0,2,9,26.5
155,2019-09-23T02:34:00,5.5,東南東,21.5,南南東,26.6,81.5,0,2,9,26.5
156,2019-09-23T02:35:00,6.1,東南東,21.5,南南東,26.7,81.1,0,1.5,9,26.5
157,2019-09-23T02:36:00,6.4,南東,21.5,南南東,26.7,80.8,0,1.5,9,26.5
158,2019-09-23T02:37:00,7.2,南東,21.5,南南東,26.8,80.6,0,1.5,9,26.5
159,2019-09-23T02:38:00,7.5,南東,21.5,南南東,26.7,80.5,0,1.5,9,26.5
160,2019-09-23T02:39:00,7.8,南東,21.5,南南東,26.8,79.9,0,1.5,9,26.5
161,2019-09-23T02:40:00,7.3,南東,21.5,南南東,27,79.7,0,1.5,9,26.5
162,2019-09-23T02:41:00,7.4,南東,21.5,南南東,26.9,79.7,0,1,9,26.5
163,2019-09-23T02:42:00,7.8,南東,21.5,南南東,26.8,79.9,0,1,9,26.5
164,2019-09-23T02:43:00,8.5,南東,21.5,南南東,26.7,80.4,0,1,9,26.5
165,2019-09-23T02:44:00,8.2,南東,20.7,南南東,26.8,80,0,1,9,26.5
166,2019-09-23T02:45:00,7.5,南東,18.5,南南東,27,79.6,0,1,9,26.5
167,2019-09-23T02:46:00,7.7,南東,18.5,南南東,26.7,80.2,0,1,9,26.5
168,2019-09-23T02:47:00,7.3,東南東,18.2,東南東,26.7,80.7,0,1,9,26.5
169,2019-09-23T02:48:00,7,東南東,18.2,東南東,26.6,80.8,0,1,9,26.5
170,2019-09-23T02:49:00,6.6,東南東,18.2,東南東,26.7,80.8,0,1,9,26.5
171,2019-09-23T02:50:00,7.1,東南東,18.2,東南東,26.6,81.1,0,1,9,26.5
172,2019-09-23T02:51:00,,"",,"",,,,,,
173,2019-09-23T02:52:00,7.5,東南東,18.4,南東,26.6,81.6,0,1,9,26.5
174,2019-09-23T02:53:00,,"",,"",,,,,,
175,2019-09-23T02:54:00,6.6,東南東,18.4,南東,26.3,82.9,0,1,9,26.5
176,2019-09-23T02:55:00,,"",,"",,,,,,
177,2019-09-23T02:56:00,5.7,東南東,18.4,南東,26.5,82.4,0,0.5,9,26.5
178,2019-09-23T02:57:00,5.2,東,18.4,南東,26.4,82.7,0,0.5,9,26.5
179,2019-09-23T02:58:00,5.1,東,18.4,南東,26.4,82.7,0,0.5,9,26.5
180,2019-09-23T02:59:00,5,東,18.4,南東,26.5,82.6,0,0.5,9,26.5
181,2019-09-23T03:00:00,4.9,東,18.4,南東,26.5,82.5,0,0.5,9,26.5
182,2019-09-23T03:01:00,4.5,東,18.4,南東,26.5,82.5,0,0.5,9,26.5
183,2019-09-23T03:02:00,4.4,東北東,11.3,東南東,26.6,82.2,0,0.5,9,26.5
184,2019-09-23T03:03:00,4.8,東北東,11.3,東南東,26.5,82.4,0,0.5,9,26.5
185,2019-09-23T03:04:00,4.8,東北東,11.3,東南東,26.6,82.3,0,0.5,9,26.5
186,2019-09-23T03:05:00,4.8,北東,11.3,東南東,26.5,82.5,0,0.5,9,26.5
187,2019-09-23T03:06:00,4.9,北東,11.3,東南東,26.6,82.4,0,0.5,9,26.5
188,2019-09-23T03:07:00,5.5,東北東,17.5,南東,26.6,81.9,0,0.5,9,26.5
189,2019-09-23T03:08:00,5.8,東北東,17.5,南東,26.7,81.6,0,0.5,9,26.5
190,2019-09-23T03:09:00,6,東北東,17.5,南東,26.6,81.6,0,0.5,9,26.5
191,2019-09-23T03:10:00,5.6,東北東,17.5,南東,26.7,81,0,0.5,9,26.5
192,2019-09-23T03:11:00,5.6,東北東,17.5,南東,26.7,81.2,0,0.5,9,26.5
193,2019-09-23T03:12:00,5.7,東北東,17.5,南東,26.6,81.6,0,0.5,9,26.5
194,2019-09-23T03:13:00,5.8,東,17.5,南東,26.6,81.8,0,0.5,9,26.5
195,2019-09-23T03:14:00,5.5,東,17.5,南東,26.8,81.2,0,0.5,9,26.5
196,2019-09-23T03:15:00,5.6,東,17.5,南東,26.8,81,0,0.5,9,26.5
197,2019-09-23T03:16:00,5.4,東,17.5,南東,26.8,81.2,0,0.5,9,26.5
198,2019-09-23T03:17:00,4.7,東,16.1,東南東,26.8,80.7,0,0.5,9,26.5
199,2019-09-23T03:18:00,4.9,東,16.1,東南東,26.8,80.4,0,0.5,9,26.5
200,2019-09-23T03:19:00,4.7,東,15.6,南東,26.9,80,0,0,9,26.5
201,2019-09-23T03:20:00,5.2,東,15.6,南東,27,79.6,0,0,9,26.5
202,2019-09-23T03:21:00,5.7,東,20.4,東南東,27,79.4,0,0,9,26.5
203,2019-09-23T03:22:00,6.7,東,23.4,東南東,27,79.6,0,0,9,26.5
204,2019-09-23T03:23:00,6.8,東,23.4,東南東,27,79.5,0,0,9,26.5
205,2019-09-23T03:24:00,7.3,東,23.4,東南東,27.2,78.5,0,0,9,26.5
206,2019-09-23T03:25:00,7.3,東,23.4,東南東,27.2,78.2,0,0,9,26.5
207,2019-09-23T03:26:00,7.4,東,23.4,東南東,27.2,78.3,0,0,9,26.5
208,2019-09-23T03:27:00,7.7,東,23.4,東南東,27.1,78.3,0,0,9,26.5
209,2019-09-23T03:28:00,,"",,"",,,,,,
210,2019-09-23T03:29:00,7,東北東,23.4,東南東,27.1,78.3,0,0,9,26.5
211,2019-09-23T03:30:00,6.6,東北東,23.4,東南東,27.2,77.6,0,0,9,26.5
212,2019-09-23T03:31:00,6.4,東北東,23.4,東南東,27.1,78,0,0,9,26.5
213,2019-09-23T03:32:00,6.1,東北東,18.5,東南東,27.1,77.9,0,0,9,26.5
214,2019-09-23T03:33:00,5.9,東北東,17.6,東南東,27,78.1,0,0,9,26.5
215,2019-09-23T03:34:00,5.9,東,17.6,東南東,26.9,78.5,0,0,9,26.5
216,2019-09-23T03:35:00,6.5,東南東,21.3,南東,27.1,77.7,0,0,9,26.5
217,2019-09-23T03:36:00,7,東南東,21.3,南東,27.1,77.3,0,0,9,26.5
218,2019-09-23T03:37:00,7.1,東南東,21.3,南東,27.1,77.4,0,0,9,26.5
219,2019-09-23T03:38:00,7.5,東南東,21.3,南東,27,77.7,0,0,9,26.5
220,2019-09-23T03:39:00,7.6,南東,21.3,南東,27.1,77.8,0,0,9,26.5
221,2019-09-23T03:40:00,7.8,南東,21.3,南東,27.1,77.6,0,0,9,26.5
222,2019-09-23T03:41:00,7.2,南東,21.3,南東,27.1,77.6,0,0,9,26.5
223,2019-09-23T03:42:00,6.2,南東,21.3,南東,27.2,77.2,0,0,9,26.5
224,2019-09-23T03:43:00,5.8,南東,21.3,南東,27.2,77,0,0,9,26.5
225,2019-09-23T03:44:00,5.7,南東,21.3,南東,27.2,77,0,0,9,26.5
226,2019-09-23T03:45:00,5.4,南東,17,東南東,27.2,76.6,0,0,9,26.5
227,2019-09-23T03:46:00,5.2,南東,17,東南東,27.3,76.2,0,0,9,26.5
228,2019-09-23T03:47:00,5.3,南東,17.9,南東,27.2,76.3,0,0,9,26.5
229,2019-09-23T03:48:00,5.3,南東,17.9,南東,27.3,76.3,0,0,9,26.5
230,2019-09-23T03:49:00,5.6,東南東,19.8,東南東,27.3,76.4,0,0,9,26.5
231,2019-09-23T03:50:00,5.8,東南東,19.8,東南東,27.3,76.4,0,0,9,26.5
232,2019-09-23T03:51:00,6.2,東南東,19.8,東南東,27.2,76.7,0,0,9,26.5
233,2019-09-23T03:52:00,6.6,東南東,19.8,東南東,27.3,76.7,0,0,9,26.5
234,2019-09-23T03:53:00,7.5,東南東,19.8,東南東,27.3,76.6,0,0,9,26.5
235,2019-09-23T03:54:00,7.1,東南東,19.8,東南東,27.3,76.6,0,0,9,26.5
236,2019-09-23T03:55:00,6.9,東南東,19.8,東南東,27.3,76.6,0,0,9,26.5
237,2019-09-23T03:56:00,6.3,東,19.8,東南東,27.4,76.3,0,0,9,26.5
238,2019-09-23T03:57:00,5.9,東,19.8,東南東,27.4,76.4,0,0,9,26.5
239,2019-09-23T03:58:00,5.8,東北東,19.8,東南東,27.3,76.7,0,0,9,26.5
240,2019-09-23T03:59:00,,"",,"",,,,,,
241,2019-09-23T04:00:00,5.1,北東,17.5,南東,27.3,77.2,0,0,9,26.5
242,2019-09-23T04:01:00,,"",,"",,,,,,
243,2019-09-23T04:02:00,5.3,北,17.5,南東,27.3,77.4,0,0,9,26.5
244,2019-09-23T04:03:00,4.8,北,13.7,南東,27.2,77.7,0,0,9,26.5
245,2019-09-23T04:04:00,5.3,北北東,13.7,南東,27.3,77.8,0,0,9,26.5
246,2019-09-23T04:05:00,5.4,北北東,12.9,北東,27.3,77.7,0,0,9,26.5
247,2019-09-23T04:06:00,5.7,北,12.9,北東,27.3,78.2,0,0,9,26.5
248,2019-09-23T04:07:00,6,北,12.9,北東,27.3,78.3,0,0,9,26.5
249,2019-09-23T04:08:00,6.1,北,12.9,北東,27.3,78.6,0,0,9,26.5
250,2019-09-23T04:09:00,6.5,北,13.9,西北西,27.4,78.9,0,0,9,26.5
251,2019-09-23T04:10:00,6.6,北,13.9,西北西,27.4,78.6,0,0,9,26.5
252,2019-09-23T04:11:00,6.1,北,13.9,西北西,27.3,78.4,0,0,9,26.5
253,2019-09-23T04:12:00,6,北,13.9,西北西,27.3,78.5,0,0,9,26.5
254,2019-09-23T04:13:00,5.6,北,13.9,西北西,27.4,78.3,0,0,9,26.5
255,2019-09-23T04:14:00,5.3,北,13.9,西北西,27.4,78.3,0,0,9,26.5
256,2019-09-23T04:15:00,5.4,北,13.9,西北西,27.3,78.4,0,0,9,26.5
257,2019-09-23T04:16:00,5.8,北北東,17.4,南東,27.3,78.4,0,0,9,26.5
258,2019-09-23T04:17:00,6.1,北東,17.4,南東,27.4,78.3,0,0,9,26.5
259,2019-09-23T04:18:00,5.9,北東,17.4,南東,27.5,78,0,0,9,26.5
260,2019-09-23T04:19:00,5.3,北東,17.4,南東,27.5,78,0,0,9,26.5
261,2019-09-23T04:20:00,5.1,北東,17.4,南東,27.4,78.1,0,0,9,26.5
262,2019-09-23T04:21:00,5.2,北東,17.4,南東,27.3,78.5,0,0,9,26.5
263,2019-09-23T04:22:00,4.9,北東,17.4,南東,27.4,78.8,0,0,9,26.5
264,2019-09-23T04:23:00,5.1,北東,17.4,南東,27.5,78.3,0,0,9,26.5
265,2019-09-23T04:24:00,5.1,北東,17.4,南東,27.5,78.1,0,0,9,26.5
266,2019-09-23T04:25:00,4.8,北北東,17.4,南東,27.5,78,0,0,9,26.5
267,2019-09-23T04:26:00,4.5,北北東,13.1,東南東,27.4,78.5,0,0,9,26.5
268,2019-09-23T04:27:00,4.1,北,11.2,西北西,27.4,78.4,0,0,9,26.5
269,2019-09-23T04:28:00,4,北,11.2,西北西,27.5,78.2,0,0,9,26.5
270,2019-09-23T04:29:00,4.4,北,11.2,西北西,27.5,77.9,0,0,9,26.5
271,2019-09-23T04:30:00,4.4,北,11.2,西北西,27.5,77.8,0,0,9,26.5
272,2019-09-23T04:31:00,4.4,北,11.2,西北西,27.5,78,0,0,9,26.5
273,2019-09-23T04:32:00,,"",,"",,,,,,
274,2019-09-23T04:33:00,4.5,北,11.2,西北西,27.5,78.4,0,0,9,26.5
275,2019-09-23T04:34:00,4.7,北,15,東南東,27.5,78.4,0,0,9,26.5
276,2019-09-23T04:35:00,,"",,"",,,,,,
277,2019-09-23T04:36:00,5.3,北東,16.9,東南東,27.5,78.3,0,0,9,26.5
278,2019-09-23T04:37:00,5.4,北東,16.9,東南東,27.5,78.4,0,0,9,26.5
279,2019-09-23T04:38:00,5.6,北東,16.9,東南東,27.6,78.1,0,0,9,26.5
280,2019-09-23T04:39:00,5.7,北東,16.9,東南東,27.5,78.2,0,0,9,26.5
281,2019-09-23T04:40:00,5.6,北北東,16.9,東南東,27.4,79,0,0,9,26.5
282,2019-09-23T04:41:00,5.3,北東,16.9,東南東,27.4,79.5,0,0,9,26.5
283,2019-09-23T04:42:00,5.3,北東,16.9,東南東,27.4,79.5,0,0,9,26.5
284,2019-09-23T04:43:00,5.4,北東,16.9,東南東,27.4,79.5,0,0,9,26.5
285,2019-09-23T04:44:00,5.4,北北東,16.9,東南東,27.3,79.6,0,0,9,26.5
286,2019-09-23T04:45:00,4.9,北北東,15,東北東,27.4,79.5,0,0,9,26.5
287,2019-09-23T04:46:00,4.6,北,15,東北東,27.4,79.2,0,0,9,26.5
288,2019-09-23T04:47:00,4.6,北,10.6,北北東,27.5,78.7,0,0,9,26.5
289,2019-09-23T04:48:00,4.9,北北西,10.6,北北東,27.5,78.1,0,0,9,26.5
290,2019-09-23T04:49:00,5.1,北北西,10.8,西北西,27.5,77.8,0,0,9,26.5
291,2019-09-23T04:50:00,5.3,北北西,11,西,27.5,77.6,0,0,9,26.5
292,2019-09-23T04:51:00,5.5,北北西,11.2,西南西,27.6,77.6,0,0,9,26.5
293,2019-09-23T04:52:00,5.4,北北西,11.2,西南西,27.6,77,0,0,9,26.5
294,2019-09-23T04:53:00,5.7,北西,11.2,西南西,27.6,76.7,0,0,9,26.5
295,2019-09-23T04:54:00,5.7,北西,12.9,北北西,27.6,76.5,0,0,9,26.5
296,2019-09-23T04:55:00,5.9,北西,12.9,北北西,27.6,75.8,0,0,9,26.5
297,2019-09-23T04:56:00,5.7,北西,12.9,北北西,27.6,75.9,0,0,9,26.5
298,2019-09-23T04:57:00,5.5,北西,12.9,北北西,27.6,76.1,0,0,9,26.5
299,2019-09-23T04:58:00,4.9,北西,12.9,北北西,27.6,75.9,0,0,9,26.5
300,2019-09-23T04:59:00,4.3,北北西,12.9,北北西,27.6,75.5,0,0,9,26.5
301,2019-09-23T05:00:00,4.2,北,12.9,北北西,27.6,76,0,0,9,26.5
302,2019-09-23T05:01:00,4,北北東,12.9,北北西,27.5,76.5,0,0,9,26.5
303,2019-09-23T05:02:00,4.3,北北東,12.9,北北西,27.5,76.9,0,0,9,26.5
304,2019-09-23T05:03:00,4.2,北北東,12.9,北北西,27.5,77.1,0,0,9,26.5
305,2019-09-23T05:04:00,4.4,北,12.6,北西,27.5,77.5,0,0,9,26.5
306,2019-09-23T05:05:00,4.3,北,12.6,北西,27.4,77.5,0,0,9,26.5
307,2019-09-23T05:06:00,4.8,北北西,12.6,北西,27.5,77.1,0,0,9,26.5
308,2019-09-23T05:07:00,4.7,北北西,12.6,北西,27.5,77,0,0,9,26.5
309,2019-09-23T05:08:00,4.7,北北西,12.6,北西,27.5,77.1,0,0,9,26.5
310,2019-09-23T05:09:00,,"",,"",,,,,,
311,2019-09-23T05:10:00,5.3,北北西,12.6,北西,27.6,76.1,0,0,9,26.5
312,2019-09-23T05:11:00,5.3,北北西,12.6,北西,27.7,76.1,0,0,9,26.5
313,2019-09-23T05:12:00,5.2,北,12.6,北西,27.7,76,0,0,9,26.5
314,2019-09-23T05:13:00,5.1,北,12.5,東,27.6,76.3,0,0,9,26.5
315,2019-09-23T05:14:00,4.9,北北東,12.5,東,27.5,76.6,0,0,9,26.5
316,2019-09-23T05:15:00,4.8,北北東,12.5,東,27.4,77,0,0,9,26.5
317,2019-09-23T05:16:00,4.7,北東,12.5,東,27.4,77.1,0,0,9,26.5
318,2019-09-23T05:17:00,5,北北東,12.6,北北東,27.4,77.1,0,0,9,26.5
319,2019-09-23T05:18:00,5.1,北東,12.6,北北東,27.5,77,0,0,9,26.5
320,2019-09-23T05:19:00,5,北東,12.6,北北東,27.5,76.8,0,0,9,26.5
321,2019-09-23T05:20:00,4.4,北北東,12.6,北北東,27.5,76.9,0,0,9,26.5
322,2019-09-23T05:21:00,4.1,北北東,12.6,北北東,27.4,77.5,0,0,9,26.5
323,2019-09-23T05:22:00,4.1,北,12.6,北北東,27.5,77.5,0,0,9,26.5
324,2019-09-23T05:23:00,3.9,北,12.6,北北東,27.5,77.5,0,0,9,26.5
325,2019-09-23T05:24:00,3.8,北,12.6,北北東,27.4,77.1,0,0,9,26.5
326,2019-09-23T05:25:00,3.7,北,12.6,北北東,27.4,77.2,0,0,9,26.5
327,2019-09-23T05:26:00,3.8,北,12.6,北北東,27.5,76.7,0,0,9,26.5
328,2019-09-23T05:27:00,3.6,北北東,10.1,北,27.6,76.5,0,0,9,26.5
329,2019-09-23T05:28:00,3.7,北,10.1,北,27.6,75.8,0,0,9,26.5
330,2019-09-23T05:29:00,3.7,北,10.1,北,27.8,75,0,0,9,26.5
331,2019-09-23T05:30:00,4,北,10.1,北,27.7,75.8,0,0,9,26.5
332,2019-09-23T05:31:00,4.3,北,10.1,北,27.8,75.5,0,0,9,26.5
333,2019-09-23T05:32:00,4.6,北,12.7,西北西,27.8,75.6,0,0,9,26.5
334,2019-09-23T05:33:00,5,北北西,12.7,西北西,27.9,74.9,0,0,9,26.5
335,2019-09-23T05:34:00,5.3,北北西,12.7,西北西,27.9,75.1,0,0,9,26.5
336,2019-09-23T05:35:00,5.3,北北西,12.7,西北西,28,74.2,0,0,9,26.5
337,2019-09-23T05:36:00,4.9,北北西,12.7,西北西,28.1,73.5,0,0,9,26.5
338,2019-09-23T05:37:00,5,北西,12.7,西北西,28,73.7,0,0,9,26.5
339,2019-09-23T05:38:00,5.1,北西,12.7,西北西,27.9,74.1,0,0,9,26.5
340,2019-09-23T05:39:00,,"",,"",,,,,,
341,2019-09-23T05:40:00,4.9,北西,12.7,西北西,27.9,73.5,0,0,9,26.5
342,2019-09-23T05:41:00,4.8,北西,12.7,西北西,28,73.6,0,0,9,26.5
343,2019-09-23T05:42:00,4.8,北西,12.1,西北西,28,73.1,0,0,9,26.5
344,2019-09-23T05:43:00,4.5,北西,12.1,西北西,28,72.6,0,0,9,26.5
345,2019-09-23T05:44:00,4.5,北西,12.1,西北西,28,73.4,0,0,9,26.5
346,2019-09-23T05:45:00,4.3,北西,12.1,西北西,28,73.4,0,0,9,26.5
347,2019-09-23T05:46:00,4.4,西北西,12.1,西北西,27.9,73.6,0,0,9,26.5
348,2019-09-23T05:47:00,4.2,西北西,12.1,西北西,27.7,73.9,0,0,9,26.5
349,2019-09-23T05:48:00,3.9,西北西,12.1,西北西,27.8,73.6,0,0,9,26.5
350,2019-09-23T05:49:00,4,西北西,12.1,西北西,27.9,73.4,0,0,9,26.5
351,2019-09-23T05:50:00,4.4,西北西,12.1,西北西,27.8,73.8,0,0,9,26.5
352,2019-09-23T05:51:00,4.4,西北西,12.1,西北西,27.8,73.6,0,0,9,26.5
353,2019-09-23T05:52:00,4.1,西北西,9.2,西,27.9,73.3,0,0,9,26.5
354,2019-09-23T05:53:00,3.9,西北西,9.2,西,27.8,73.8,0,0,9,26.5
355,2019-09-23T05:54:00,3.9,西,10,南南西,27.7,74,0,0,9,26.5
356,2019-09-23T05:55:00,4.2,西,12.2,西北西,27.6,74.1,0,0,9,26.5
357,2019-09-23T05:56:00,4.3,西,12.2,西北西,27.7,73.9,0,0,9,26.5
358,2019-09-23T05:57:00,4.3,西,12.2,西北西,27.6,74.7,0,0,9,26.5
359,2019-09-23T05:58:00,4.2,西北西,12.2,西北西,27.4,75.2,0,0,9,26.5
360,2019-09-23T05:59:00,4,西北西,12.2,西北西,27.4,75.2,0,0,9,26.5
361,2019-09-23T06:00:00,4,西北西,12.2,西北西,27.5,75.6,0,0,9,26.5
362,2019-09-23T06:01:00,4,西北西,12.2,西北西,27.4,76.4,0,0,9,26.5
363,2019-09-23T06:02:00,4.2,西北西,12.2,西北西,27.4,76.1,0,0,9,26.5
364,2019-09-23T06:03:00,4.3,西北西,12.2,西北西,27.4,75.5,0,0,9,26.5
365,2019-09-23T06:04:00,4.3,西北西,12.2,西北西,27.4,75.8,0,0,9,26.5
366,2019-09-23T06:05:00,4.5,西北西,10.9,西北西,27.4,75.9,0,0,9,26.5
367,2019-09-23T06:06:00,4.7,西北西,11.4,西南西,27.3,76.4,0,0,9,26.5
368,2019-09-23T06:07:00,5.1,西,11.4,西南西,27.3,75.8,0,0,9,26.5
369,2019-09-23T06:08:00,5.3,西,11.4,西南西,27.5,75.3,0,0,9,26.5
370,2019-09-23T06:09:00,5.2,西,11.4,西南西,27.5,75.2,0,0,9,26.5
371,2019-09-23T06:10:00,5.1,西,11.4,西南西,27.4,75.9,0,0,9,26.5
372,2019-09-23T06:11:00,,"",,"",,,,,,
373,2019-09-23T06:12:00,4.9,西,11.4,西南西,27.2,76.7,0,0,9,26.5
374,2019-09-23T06:13:00,5,西,11.4,西南西,27.3,76.1,0,0,9,26.5
375,2019-09-23T06:14:00,,"",,"",,,,,,
376,2019-09-23T06:15:00,4.8,西南西,11.4,西南西,27.2,77.1,0,0,9,26.5
377,2019-09-23T06:16:00,4.7,西南西,11.3,西,27.2,77.1,0,0,9,26.5
378,2019-09-23T06:17:00,4.3,西,11.3,西,27.2,76.8,0,0,9,26.5
379,2019-09-23T06:18:00,4.1,西,11.3,西,27.3,76.3,0,0,9,26.5
380,2019-09-23T06:19:00,3.9,西南西,11.3,西,27.3,76.1,0,0,9,26.5
381,2019-09-23T06:20:00,3.8,西南西,11.3,西,27.3,76.5,0,0,9,26.5
382,2019-09-23T06:21:00,3.6,西,11.3,西,27.3,76.7,0,0,9,26.5
383,2019-09-23T06:22:00,3.3,西,11.3,西,27.3,77.1,0,0,9,26.5
384,2019-09-23T06:23:00,3.4,西,11.3,西,27.2,77.2,0,0,9,26.5
385,2019-09-23T06:24:00,3.5,西,11.3,西,27.2,77,0,0,9,26.5
386,2019-09-23T06:25:00,3.2,西,11.3,西,27.2,77.1,0,0,9,26.5
387,2019-09-23T06:26:00,3,西,11.5,西,27.2,77.7,0,0,9,26.5
388,2019-09-23T06:27:00,3.3,西,11.5,西,27.2,77.3,0,0,9,26.5
389,2019-09-23T06:28:00,3.7,西,11.5,西,27.2,77,0,0,9,26.5
390,2019-09-23T06:29:00,3.9,西,11.5,西,27.2,77,0,0,9,26.5
391,2019-09-23T06:30:00,4,西,11.5,西,27.2,76.9,0,0,9,26.5
392,2019-09-23T06:31:00,4.5,西,13.4,南西,27.2,77.2,0,0,9,26.5
393,2019-09-23T06:32:00,5,西,13.4,南西,27.1,77.5,0,0,9,26.5
394,2019-09-23T06:33:00,4.9,西,13.4,南西,27.1,77.5,0,0,9,26.5
395,2019-09-23T06:34:00,5.1,西,13.4,南西,27.1,77.8,0,0,9,26.5
396,2019-09-23T06:35:00,5.2,西南西,19.3,西南西,27.2,76.4,0,0,9,26.5
397,2019-09-23T06:36:00,5.6,西南西,19.3,西南西,27.3,76,0,0,9,26.5
398,2019-09-23T06:37:00,5.8,西南西,19.3,西南西,27.2,77.3,0,0,9,26.5
399,2019-09-23T06:38:00,5.9,西南西,19.3,西南西,27.1,77.3,0,0,9,26.5
400,2019-09-23T06:39:00,6.4,西南西,19.3,西南西,27.2,76.9,0,0,9,26.5
401,2019-09-23T06:40:00,6.5,西南西,19.3,西南西,27.1,77.4,0,0,9,26.5
402,2019-09-23T06:41:00,,"",,"",,,,,,
403,2019-09-23T06:42:00,6.2,西南西,19.3,西南西,27,78.1,0,0,9,26.5